Time,TemperatureF,DewpointF,PressureIn,WindDirection,WindDirectionDegrees,WindSpeedMPH,WindSpeedGustMPH,Humidity,HourlyPrecipIn,Conditions,Clouds,dailyrainin,SoftwareType,DateUTC
2013-01-18 00:00:00,75.0,-99.9,30.04,NE,50,18.0,-999.0,-999,-99.99,,,-99.99,,2013-01-18 08:00:00,
2013-01-18 00:22:00,75.0,-99.9,30.04,NE,50,18.0,-999.0,-999,-99.99,,,-99.99,,2013-01-18 08:22:00,
2013-01-18 00:33:00,75.0,-99.9,30.04,NE,50,18.0,-999.0,-999,-99.99,,,-99.99,,2013-01-18 08:33:00,
2013-01-18 00:43:00,75.0,-99.9,30.04,NE,50,18.0,-999.0,-999,-99.99,,,-99.99,,2013-01-18 08:43:00,
2013-01-18 00:53:00,75.0,-99.9,30.04,NE,50,18.0,-999.0,-999,-99.99,,,-99.99,,2013-01-18 08:53:00,
2013-01-18 01:00:00,74.0,-99.9,30.05,NE,50,21.0,-999.0,-999,-99.99,,,-99.99,,2013-01-18 09:00:00,
2013-01-18 01:22:00,74.0,-99.9,30.05,NE,50,21.0,-999.0,-999,-99.99,,,-99.99,,2013-01-18 09:22:00,
2013-01-18 01:33:00,74.0,-99.9,30.05,NE,50,21.0,-999.0,-999,-99.99,,,-99.99,,2013-01-18 09:33:00,
2013-01-18 01:43:00,74.0,-99.9,30.05,NE,50,21.0,-999.0,-999,-99.99,,,-99.99,,2013-01-18 09:43:00,
2013-01-18 01:53:00,74.0,-99.9,30.05,NE,50,21.0,-999.0,-999,-99.99,,,-99.99,,2013-01-18 09:53:00,
2013-01-18 02:00:00,75.0,-99.9,30.09,ENE,60,21.0,-999.0,-999,-99.99,,,-99.99,,2013-01-18 10:00:00,
2013-01-18 02:22:00,75.0,-99.9,30.09,ENE,60,21.0,-999.0,-999,-99.99,,,-99.99,,2013-01-18 10:22:00,
2013-01-18 02:33:00,75.0,-99.9,30.09,ENE,60,21.0,-999.0,-999,-99.99,,,-99.99,,2013-01-18 10:33:00,
2013-01-18 02:43:00,75.0,-99.9,30.09,ENE,60,21.0,-999.0,-999,-99.99,,,-99.99,,2013-01-18 10:43:00,
2013-01-18 02:53:00,75.0,-99.9,30.09,ENE,60,21.0,-999.0,-999,-99.99,,,-99.99,,2013-01-18 10:53:00,
2013-01-18 03:00:00,75.0,-99.9,30.13,East,90,17.0,-999.0,-999,-99.99,,,-99.99,,2013-01-18 11:00:00,
2013-01-18 03:23:00,75.0,-99.9,30.13,East,90,17.0,-999.0,-999,-99.99,,,-99.99,,2013-01-18 11:23:00,
2013-01-18 03:33:00,75.0,-99.9,30.13,East,90,17.0,-999.0,-999,-99.99,,,-99.99,,2013-01-18 11:33:00,
2013-01-18 03:43:00,75.0,-99.9,30.13,East,90,17.0,-999.0,-999,-99.99,,,-99.99,,2013-01-18 11:43:00,
2013-01-18 03:53:00,75.0,-99.9,30.13,East,90,17.0,-999.0,-999,-99.99,,,-99.99,,2013-01-18 11:53:00,
2013-01-18 04:00:00,77.0,72.0,30.14,East,80,17.0,-999.0,84,-99.99,,,-99.99,,2013-01-18 12:00:00,
2013-01-18 04:22:00,77.0,72.0,30.14,East,80,17.0,-999.0,84,-99.99,,,-99.99,,2013-01-18 12:22:00,
2013-01-18 04:32:00,77.0,72.0,30.14,East,80,17.0,-999.0,84,-99.99,,,-99.99,,2013-01-18 12:32:00,
2013-01-18 04:42:00,77.0,72.0,30.14,East,80,17.0,-999.0,84,-99.99,,,-99.99,,2013-01-18 12:42:00,
2013-01-18 04:52:00,77.0,72.0,30.14,East,80,17.0,-999.0,84,-99.99,,,-99.99,,2013-01-18 12:52:00,
2013-01-18 05:00:00,75.0,-99.9,30.11,East,90,21.0,-999.0,-999,-99.99,,,-99.99,,2013-01-18 13:00:00,
2013-01-18 05:23:00,75.0,-99.9,30.11,East,90,21.0,-999.0,-999,-99.99,,,-99.99,,2013-01-18 13:23:00,
2013-01-18 05:34:00,75.0,-99.9,30.11,East,90,21.0,-999.0,-999,-99.99,,,-99.99,,2013-01-18 13:34:00,
2013-01-18 05:43:00,75.0,-99.9,30.11,East,90,21.0,-999.0,-999,-99.99,,,-99.99,,2013-01-18 13:43:00,
2013-01-18 05:53:00,75.0,-99.9,30.11,East,90,21.0,-999.0,-999,-99.99,,,-99.99,,2013-01-18 13:53:00,
2013-01-18 06:00:00,75.0,-99.9,30.10,East,90,15.0,-999.0,-999,-99.99,,,-99.99,,2013-01-18 14:00:00,
2013-01-18 06:23:00,75.0,-99.9,30.10,East,90,15.0,-999.0,-999,-99.99,,,-99.99,,2013-01-18 14:23:00,
2013-01-18 06:34:00,75.0,-99.9,30.10,East,90,15.0,-999.0,-999,-99.99,,,-99.99,,2013-01-18 14:34:00,
2013-01-18 06:43:00,75.0,-99.9,30.10,East,90,15.0,-999.0,-999,-99.99,,,-99.99,,2013-01-18 14:43:00,
2013-01-18 06:53:00,75.0,-99.9,30.10,East,90,15.0,-999.0,-999,-99.99,,,-99.99,,2013-01-18 14:53:00,
2013-01-18 07:00:00,75.0,-99.9,30.07,East,80,18.0,-999.0,-999,-99.99,,,-99.99,,2013-01-18 15:00:00,
2013-01-18 07:23:00,75.0,-99.9,30.07,East,80,18.0,-999.0,-999,-99.99,,,-99.99,,2013-01-18 15:23:00,
2013-01-18 07:34:00,75.0,-99.9,30.07,East,80,18.0,-999.0,-999,-99.99,,,-99.99,,2013-01-18 15:34:00,
2013-01-18 07:44:00,75.0,-99.9,30.07,East,80,18.0,-999.0,-999,-99.99,,,-99.99,,2013-01-18 15:44:00,
2013-01-18 07:54:00,75.0,-99.9,30.07,East,80,18.0,-999.0,-999,-99.99,,,-99.99,,2013-01-18 15:54:00,
2013-01-18 08:00:00,75.0,-99.9,30.05,East,100,21.0,-999.0,-999,-99.99,,,-99.99,,2013-01-18 16:00:00,
2013-01-18 08:23:00,75.0,-99.9,30.05,East,100,21.0,-999.0,-999,-99.99,,,-99.99,,2013-01-18 16:23:00,
2013-01-18 08:33:00,75.0,-99.9,30.05,East,100,21.0,-999.0,-999,-99.99,,,-99.99,,2013-01-18 16:33:00,
2013-01-18 08:43:00,75.0,-99.9,30.05,East,100,21.0,-999.0,-999,-99.99,,,-99.99,,2013-01-18 16:43:00,
2013-01-18 08:53:00,75.0,-99.9,30.05,East,100,21.0,-999.0,-999,-99.99,,,-99.99,,2013-01-18 16:53:00,
2013-01-18 09:00:00,75.0,-99.9,30.04,ESE,110,17.0,-999.0,-999,-99.99,,,-99.99,,2013-01-18 17:00:00,
2013-01-18 09:23:00,75.0,-99.9,30.04,ESE,110,17.0,-999.0,-999,-99.99,,,-99.99,,2013-01-18 17:23:00,
2013-01-18 09:34:00,75.0,-99.9,30.04,ESE,110,17.0,-999.0,-999,-99.99,,,-99.99,,2013-01-18 17:34:00,
2013-01-18 09:43:00,75.0,-99.9,30.04,ESE,110,17.0,-999.0,-999,-99.99,,,-99.99,,2013-01-18 17:43:00,
2013-01-18 09:53:00,75.0,-99.9,30.04,ESE,110,17.0,-999.0,-999,-99.99,,,-99.99,,2013-01-18 17:53:00,
2013-01-18 10:00:00,77.0,70.0,30.07,East,100,15.0,-999.0,79,-99.99,,,-99.99,,2013-01-18 18:00:00,
2013-01-18 10:24:00,75.0,-99.9,30.05,East,100,14.0,-999.0,-999,-99.99,,,-99.99,,2013-01-18 18:24:00,
2013-01-18 10:32:00,77.0,70.0,30.07,East,100,15.0,-999.0,79,-99.99,,,-99.99,,2013-01-18 18:32:00,
2013-01-18 10:42:00,77.0,70.0,30.07,East,100,15.0,-999.0,79,-99.99,,,-99.99,,2013-01-18 18:42:00,
2013-01-18 10:52:00,77.0,70.0,30.07,East,100,15.0,-999.0,79,-99.99,,,-99.99,,2013-01-18 18:52:00,
2013-01-18 11:00:00,75.0,-99.9,30.07,East,90,13.0,-999.0,-999,-99.99,,,-99.99,,2013-01-18 19:00:00,
2013-01-18 11:23:00,75.0,-99.9,30.07,East,90,13.0,-999.0,-999,-99.99,,,-99.99,,2013-01-18 19:23:00,
2013-01-18 11:33:00,75.0,-99.9,30.07,East,90,13.0,-999.0,-999,-99.99,,,-99.99,,2013-01-18 19:33:00,
2013-01-18 11:43:00,75.0,-99.9,30.07,East,90,13.0,-999.0,-999,-99.99,,,-99.99,,2013-01-18 19:43:00,
2013-01-18 11:53:00,75.0,-99.9,30.07,East,90,13.0,-999.0,-999,-99.99,,,-99.99,,2013-01-18 19:53:00,
2013-01-18 12:00:00,75.0,-99.9,30.09,East,90,15.0,-999.0,-999,-99.99,,,-99.99,,2013-01-18 20:00:00,
2013-01-18 12:23:00,75.0,-99.9,30.09,East,90,15.0,-999.0,-999,-99.99,,,-99.99,,2013-01-18 20:23:00,
2013-01-18 12:34:00,75.0,-99.9,30.09,East,90,15.0,-999.0,-999,-99.99,,,-99.99,,2013-01-18 20:34:00,
2013-01-18 12:43:00,75.0,-99.9,30.09,East,90,15.0,-999.0,-999,-99.99,,,-99.99,,2013-01-18 20:43:00,
2013-01-18 12:53:00,75.0,-99.9,30.09,East,90,15.0,-999.0,-999,-99.99,,,-99.99,,2013-01-18 20:53:00,
2013-01-18 13:00:00,75.0,-99.9,30.12,ENE,70,13.0,-999.0,-999,-99.99,,,-99.99,,2013-01-18 21:00:00,
2013-01-18 13:23:00,75.0,-99.9,30.12,ENE,70,13.0,-999.0,-999,-99.99,,,-99.99,,2013-01-18 21:23:00,
2013-01-18 13:33:00,75.0,-99.9,30.12,ENE,70,13.0,-999.0,-999,-99.99,,,-99.99,,2013-01-18 21:33:00,
2013-01-18 13:43:00,75.0,-99.9,30.12,ENE,70,13.0,-999.0,-999,-99.99,,,-99.99,,2013-01-18 21:43:00,
2013-01-18 13:53:00,75.0,-99.9,30.12,ENE,70,13.0,-999.0,-999,-99.99,,,-99.99,,2013-01-18 21:53:00,
2013-01-18 14:00:00,75.0,-99.9,30.14,East,80,15.0,-999.0,-999,-99.99,,,-99.99,,2013-01-18 22:00:00,
2013-01-18 14:23:00,75.0,-99.9,30.14,East,80,15.0,-999.0,-999,-99.99,,,-99.99,,2013-01-18 22:23:00,
2013-01-18 14:33:00,75.0,-99.9,30.14,East,80,15.0,-999.0,-999,-99.99,,,-99.99,,2013-01-18 22:33:00,
2013-01-18 14:43:00,75.0,-99.9,30.14,East,80,15.0,-999.0,-999,-99.99,,,-99.99,,2013-01-18 22:43:00,
2013-01-18 14:53:00,75.0,-99.9,30.14,East,80,15.0,-999.0,-999,-99.99,,,-99.99,,2013-01-18 22:53:00,
2013-01-18 15:00:00,75.0,-99.9,30.16,ENE,70,16.0,-999.0,-999,-99.99,,,-99.99,,2013-01-18 23:00:00,
2013-01-18 15:23:00,75.0,-99.9,30.16,ENE,70,16.0,-999.0,-999,-99.99,,,-99.99,,2013-01-18 23:23:00,
2013-01-18 15:33:00,75.0,-99.9,30.16,ENE,70,16.0,-999.0,-999,-99.99,,,-99.99,,2013-01-18 23:33:00,
2013-01-18 15:43:00,75.0,-99.9,30.16,ENE,70,16.0,-999.0,-999,-99.99,,,-99.99,,2013-01-18 23:43:00,
2013-01-18 15:53:00,75.0,-99.9,30.16,ENE,70,16.0,-999.0,-999,-99.99,,,-99.99,,2013-01-18 23:53:00,
2013-01-18 16:00:00,74.0,69.0,30.16,East,80,17.0,-999.0,84,-99.99,,,-99.99,,2013-01-19 00:00:00,
2013-01-18 16:22:00,74.0,69.0,30.16,East,80,17.0,-999.0,84,-99.99,,,-99.99,,2013-01-19 00:22:00,
2013-01-18 16:32:00,74.0,69.0,30.16,East,80,17.0,-999.0,84,-99.99,,,-99.99,,2013-01-19 00:32:00,
2013-01-18 16:42:00,74.0,69.0,30.16,East,80,17.0,-999.0,84,-99.99,,,-99.99,,2013-01-19 00:42:00,
2013-01-18 16:52:00,74.0,69.0,30.16,East,80,17.0,-999.0,84,-99.99,,,-99.99,,2013-01-19 00:52:00,
2013-01-18 17:00:00,74.0,-99.9,30.15,East,90,16.0,-999.0,-999,-99.99,,,-99.99,,2013-01-19 01:00:00,
2013-01-18 17:23:00,74.0,-99.9,30.15,East,90,16.0,-999.0,-999,-99.99,,,-99.99,,2013-01-19 01:23:00,
2013-01-18 17:33:00,74.0,-99.9,30.15,East,90,16.0,-999.0,-999,-99.99,,,-99.99,,2013-01-19 01:33:00,
2013-01-18 17:43:00,74.0,-99.9,30.15,East,90,16.0,-999.0,-999,-99.99,,,-99.99,,2013-01-19 01:43:00,
2013-01-18 17:53:00,74.0,-99.9,30.15,East,90,16.0,-999.0,-999,-99.99,,,-99.99,,2013-01-19 01:53:00,
2013-01-18 18:00:00,74.0,-99.9,30.16,East,80,17.0,-999.0,-999,-99.99,,,-99.99,,2013-01-19 02:00:00,
2013-01-18 18:23:00,74.0,-99.9,30.16,East,80,17.0,-999.0,-999,-99.99,,,-99.99,,2013-01-19 02:23:00,
2013-01-18 18:33:00,74.0,-99.9,30.16,East,80,17.0,-999.0,-999,-99.99,,,-99.99,,2013-01-19 02:33:00,
2013-01-18 18:43:00,74.0,-99.9,30.16,East,80,17.0,-999.0,-999,-99.99,,,-99.99,,2013-01-19 02:43:00,
2013-01-18 18:53:00,74.0,-99.9,30.16,East,80,17.0,-999.0,-999,-99.99,,,-99.99,,2013-01-19 02:53:00,
2013-01-18 19:00:00,74.0,-99.9,30.15,NE,50,9.0,-999.0,-999,-99.99,,,-99.99,,2013-01-19 03:00:00,
2013-01-18 19:23:00,74.0,-99.9,30.15,NE,50,9.0,-999.0,-999,-99.99,,,-99.99,,2013-01-19 03:23:00,
2013-01-18 19:33:00,74.0,-99.9,30.15,NE,50,9.0,-999.0,-999,-99.99,,,-99.99,,2013-01-19 03:33:00,
2013-01-18 19:44:00,74.0,-99.9,30.15,NE,50,9.0,-999.0,-999,-99.99,,,-99.99,,2013-01-19 03:44:00,
2013-01-18 19:53:00,74.0,-99.9,30.15,NE,50,9.0,-999.0,-999,-99.99,,,-99.99,,2013-01-19 03:53:00,
2013-01-18 20:00:00,74.0,-99.9,30.13,ENE,60,17.0,-999.0,-999,-99.99,,,-99.99,,2013-01-19 04:00:00,
2013-01-18 20:22:00,74.0,-99.9,30.13,ENE,60,17.0,-999.0,-999,-99.99,,,-99.99,,2013-01-19 04:22:00,
2013-01-18 20:33:00,74.0,-99.9,30.13,ENE,60,17.0,-999.0,-999,-99.99,,,-99.99,,2013-01-19 04:33:00,
2013-01-18 20:43:00,74.0,-99.9,30.13,ENE,60,17.0,-999.0,-999,-99.99,,,-99.99,,2013-01-19 04:43:00,
2013-01-18 20:53:00,74.0,-99.9,30.13,ENE,60,17.0,-999.0,-999,-99.99,,,-99.99,,2013-01-19 04:53:00,
2013-01-18 21:00:00,74.0,-99.9,30.12,ENE,60,16.0,-999.0,-999,-99.99,,,-99.99,,2013-01-19 05:00:00,
2013-01-18 21:23:00,74.0,-99.9,30.12,ENE,60,16.0,-999.0,-999,-99.99,,,-99.99,,2013-01-19 05:23:00,
2013-01-18 21:33:00,74.0,-99.9,30.12,ENE,60,16.0,-999.0,-999,-99.99,,,-99.99,,2013-01-19 05:33:00,
2013-01-18 21:43:00,74.0,-99.9,30.12,ENE,60,16.0,-999.0,-999,-99.99,,,-99.99,,2013-01-19 05:43:00,
2013-01-18 21:53:00,74.0,-99.9,30.12,ENE,60,16.0,-999.0,-999,-99.99,,,-99.99,,2013-01-19 05:53:00,
2013-01-18 22:00:00,74.0,68.0,30.14,NE,50,16.0,-999.0,82,-99.99,,,-99.99,,2013-01-19 06:00:00,
2013-01-18 22:23:00,74.0,-99.9,30.12,NE,50,18.0,-999.0,-999,-99.99,,,-99.99,,2013-01-19 06:23:00,
2013-01-18 22:32:00,74.0,68.0,30.14,NE,50,16.0,-999.0,82,-99.99,,,-99.99,,2013-01-19 06:32:00,
2013-01-18 22:42:00,74.0,68.0,30.14,NE,50,16.0,-999.0,82,-99.99,,,-99.99,,2013-01-19 06:42:00,
2013-01-18 22:52:00,74.0,68.0,30.14,NE,50,16.0,-999.0,82,-99.99,,,-99.99,,2013-01-19 06:52:00,
2013-01-18 23:00:00,73.0,-99.9,30.12,ENE,60,16.0,-999.0,-999,-99.99,,,-99.99,,2013-01-19 07:00:00,
2013-01-18 23:23:00,73.0,-99.9,30.12,ENE,60,16.0,-999.0,-999,-99.99,,,-99.99,,2013-01-19 07:23:00,
2013-01-18 23:33:00,73.0,-99.9,30.12,ENE,60,16.0,-999.0,-999,-99.99,,,-99.99,,2013-01-19 07:33:00,
2013-01-18 23:43:00,73.0,-99.9,30.12,ENE,60,16.0,-999.0,-999,-99.99,,,-99.99,,2013-01-19 07:43:00,
2013-01-18 23:53:00,73.0,-99.9,30.12,ENE,60,16.0,-999.0,-999,-99.99,,,-99.99,,2013-01-19 07:53:00,